Regional Weather Roundup
Issued by NWS

Home | Current Version | Previous Version | Graphics & Text | Print | Product List | Glossary On
Versions: 1 2 3 4 5 6 7 8 9 10 11 12 13 14 15 16 17 18 19 20 21 22 23 24 25 26 27 28 29 30 31 32 33 34 35 36 37 38 39 40 41 42 43 44 45 46 47 48 49 50
034
ASUS44 KJAN 182103
RWRMS

MISSISSIPPI HOURLY WEATHER ROUNDUP
NATIONAL WEATHER SERVICE JACKSON MS
400 PM CDT THU SEP 18 2014

NOTE: "FAIR: INDICATES FEW OR NO CLOUDS BELOW 12,000 FEET WITH NO
SIGNIFICANT WEATHER AND/OR OBSTRUCTIONS TO VISIBILITY.

MSZ001>002-007>008-010>013-018>021-025>028-034>036-182200-
NORTHWEST MISSISSIPPI

CITY           SKY/WX    TMP DP  RH WIND       PRES   REMARKS
CLARKSDALE     CLOUDY    84  72  65 SW14G21   29.91R
CLEVELAND      CLOUDY    77  71  81 SW5       29.90R
GREENWOOD      CLOUDY    81  73  76 W12G17    29.87S
GREENVILLE     CLOUDY    82  68  62 SE22G36   29.89R THUNDER
GRENADA        MOCLDY    81  73  78 CALM      29.87F
OLIVE BRANCH   PTSUNNY   79  73  83 NE10      29.92F
OXFORD         FAIR      82  68  61 E5        29.91S
TUNICA         PTCLDY    82  70  65 N8        29.90R
$$

MSZ003>006-009-014>017-022>024-029>033-037>039-182200-
NORTHEAST MISSISSIPPI

CITY           SKY/WX    TMP DP  RH WIND       PRES   REMARKS
COLUMBUS AFB   SUNNY     88  65  46 VRB5      29.88F
CORINTH        FAIR      77  64  65 NE14      29.93F
GOLDN TRIANGLE MOSUNNY   88  64  45 SE9       29.88F
STARKVILLE     FAIR      86  66  51 SE3       29.88F
TUPELO         SUNNY     84  64  50 E8        29.89F
$$

MSZ040-058-182200-
CENTRAL MISSISSIPPI

CITY           SKY/WX    TMP DP  RH WIND       PRES   REMARKS
JACKSON INTL   LGT RAIN  79  75  87 N6        29.88F FOG
JACKSON HAWKNS HVY RAIN  84  72  67 S7        29.88F
MERIDIAN KEY   LGT RAIN  72  69  90 N8        29.91F
MERIDIAN NAS   CLOUDY    86  66  51 S9        29.90S THUNDER
RAYMOND        FAIR      86  81  84 S5        29.88S HX 102
VICKSBURG      CLOUDY    86  70  58 S7        29.88S HX  90
$$

MSZ059>079-182200-
SOUTH MISSISSIPPI

CITY           SKY/WX    TMP DP  RH WIND       PRES   REMARKS
BROOKHAVEN     FAIR      84  73  70 CALM      29.91F HX  91
COLUMBIA       FAIR      84  75  74 S3        29.88F HX  92
HATTIESBURG    CLOUDY    86  72  62 SE3       29.89F HX  92
MCCOMB         CLOUDY    83  70  64 S5        29.90F
NATCHEZ        CLOUDY    82  73  74 S5        29.90S
PINE BELT      PTSUNNY  N/A N/A N/A SE6       29.90F
$$

MSZ080>082-182200-
COASTAL MISSISSIPPI

CITY           SKY/WX    TMP DP  RH WIND       PRES   REMARKS
BAY ST LOUIS   MOSUNNY   86  72  62 SE6       29.88F HX  92
BILOXI         CLOUDY    87  74  65 S7        29.88F HX  94
PASCAGOULA     CLOUDY    85  73  67 S6        29.88F HX  91
GULFPORT       CLOUDY    86  74  67 S7        29.87F HX  94
$$



USA.gov is the U.S. government's official web portal to all federal, state and local government web resources and services.